TimeAEST,TemperatureF,Dew PointF,Humidity,Sea Level PressureIn,VisibilityMPH,Wind Direction,Wind SpeedMPH,Gust SpeedMPH,PrecipitationIn,Events,Conditions,WindDirDegrees,DateUTC
12:00 AM,73,68,80,29.81,,Calm,Calm,,,,,,2013-12-27 14:00:00
12:00 AM,73.4,68.0,83,29.80,6.2,Calm,Calm,-,N/A,,Unknown,0,2013-12-27 14:00:00
1:00 AM,71.6,68.0,88,29.80,6.2,Calm,Calm,-,N/A,,Unknown,0,2013-12-27 15:00:00
2:00 AM,69.8,68.0,94,29.77,6.2,Calm,Calm,-,N/A,,Unknown,0,2013-12-27 16:00:00
3:00 AM,70,67,88,29.77,,Calm,Calm,,,,,,2013-12-27 17:00:00
3:00 AM,69.8,68.0,94,29.77,6.2,Calm,Calm,-,N/A,,Unknown,0,2013-12-27 17:00:00
4:00 AM,69.8,66.2,88,29.77,6.2,Calm,Calm,-,N/A,,Unknown,0,2013-12-27 18:00:00
5:00 AM,69.8,68.0,94,29.77,6.2,Calm,Calm,-,N/A,,Unknown,0,2013-12-27 19:00:00
6:00 AM,70,68,93,29.80,,West,1.2,,,,,270,2013-12-27 20:00:00
6:00 AM,69.8,68.0,94,29.80,6.2,West,1.2,-,N/A,,Unknown,270,2013-12-27 20:00:00
7:00 AM,77.0,69.8,78,29.83,6.2,Calm,Calm,-,N/A,,Unknown,0,2013-12-27 21:00:00
8:00 AM,80.6,69.8,70,29.83,6.2,North,5.8,-,N/A,,Unknown,10,2013-12-27 22:00:00
9:00 AM,84,69,52,29.85,19,NW,6.9,,,,Partly Cloudy,320,2013-12-27 23:00:00
9:00 AM,84.2,69.8,62,29.83,6.2,NW,6.9,-,N/A,,Mostly Cloudy,320,2013-12-27 23:00:00
10:00 AM,89.6,66.2,46,29.83,6.2,ENE,6.9,-,N/A,,Scattered Clouds,60,2013-12-28 00:00:00
11:00 AM,89.6,64.4,43,29.83,6.2,NNW,6.9,-,N/A,,Unknown,340,2013-12-28 01:00:00
12:00 PM,91,69,38,29.81,,ESE,8.1,,,,,120,2013-12-28 02:00:00
12:00 PM,91.4,68.0,46,29.80,6.2,ESE,8.1,-,N/A,,Unknown,120,2013-12-28 02:00:00
1:00 PM,93.2,69.8,46,29.77,6.2,East,10.4,-,N/A,,Unknown,100,2013-12-28 03:00:00
2:00 PM,93.2,68.0,44,29.74,6.2,East,11.5,-,N/A,,Unknown,90,2013-12-28 04:00:00
3:00 PM,94,67,31,29.74,19,NE,8.1,,,,Partly Cloudy,40,2013-12-28 05:00:00
3:00 PM,93.2,66.2,41,29.74,6.2,NNE,9.2,-,N/A,,Scattered Clouds,30,2013-12-28 05:00:00
4:00 PM,91.4,66.2,43,29.71,6.2,NE,10.4,-,N/A,,Mostly Cloudy,40,2013-12-28 06:00:00
5:00 PM,89.6,68.0,49,29.74,6.2,NNE,11.5,-,N/A,,Unknown,30,2013-12-28 07:00:00
6:00 PM,85,68,48,29.76,,North,9.2,,,,,10,2013-12-28 08:00:00
6:00 PM,84.2,68.0,58,29.74,6.2,North,9.2,-,N/A,,Unknown,10,2013-12-28 08:00:00
7:00 PM,80.6,68.0,65,29.77,6.2,North,8.1,-,N/A,,Unknown,10,2013-12-28 09:00:00
8:00 PM,78.8,69.8,74,29.80,6.2,NNW,3.5,-,N/A,,Unknown,340,2013-12-28 10:00:00
9:00 PM,77,70,72,29.82,,North,3.5,,,,,350,2013-12-28 11:00:00
9:00 PM,77.0,69.8,78,29.80,6.2,North,3.5,-,N/A,,Unknown,350,2013-12-28 11:00:00
10:00 PM,75.2,68.0,78,29.83,6.2,Calm,Calm,-,N/A,,Unknown,0,2013-12-28 12:00:00
11:00 PM,73.4,68.0,83,29.83,6.2,Calm,Calm,-,N/A,,Unknown,0,2013-12-28 13:00:00